This demonstration page uses our WeatherBlox Daily Observations layout. Learn more.

Left ArrowRight Arrow

36.19886, -115.1175

Hourly Observations for December 3, 2018

Temp ( °F °C ) Dew Point ( °F °C ) Humidity (%) Winds ( mph kmh ) Pressure ( in mb ) Visibility ( mi km ) Precip ( " mm )
12:53 am 00:53 Clear 38 3.3 19 -7.2 46 46 W 3 6 30.22 1023 10 16.0934 N/A
1:53 am 01:53 Clear 38 3.3 19 -7.2 46 46 WNW 5 7 30.22 1024 10 16.0934 N/A
3:53 am 03:53 Clear 37 2.8 22 -5.6 54 54 N N/A 30.24 1024 10 16.0934 N/A
4:53 am 04:53 Clear 40 4.4 20 -6.7 45 45 W 3 6 30.25 1024 10 16.0934 N/A
5:53 am 05:53 Clear 38 3.3 21 -6.1 51 51 WNW 6 9 30.28 1026 10 16.0934 N/A
6:53 am 06:53 Sunny 37 2.8 21 -6.1 52 52 NNW 3 6 30.3 1026 10 16.0934 N/A
7:53 am 07:53 Sunny 42 5.6 20 -6.7 41 41 NNW 10 17 30.32 1027 10 16.0934 N/A
8:53 am 08:53 Sunny 45 7.2 19 -7.2 35 35 N 8 13 30.35 1028 10 16.0934 N/A
9:53 am 09:53 Sunny 46 7.8 20 -6.7 35 35 N N/A 30.35 1028 10 16.0934 N/A
10:53 am 10:53 Sunny 48 8.9 19 -7.2 32 32 SSE 5 7 30.35 1028 10 16.0934 N/A
11:53 am 11:53 Sunny 49 9.4 18 -7.8 29 29 SE 3 6 30.3 1026 10 16.0934 N/A
12:53 pm 12:53 Sunny 51 10.6 16 -8.9 25 25 VRB 5 7 30.29 1026 10 16.0934 N/A
1:53 pm 13:53 Sunny 51 10.6 16 -8.9 25 25 ESE 8 13 30.27 1025 10 16.0934 N/A
2:53 pm 14:53 Sunny 51 10.6 14 -10 23 23 SE 6 9 30.27 1025 10 16.0934 N/A
3:53 pm 15:53 Sunny 51 10.6 14 -10 23 23 E 5 7 30.27 1025 10 16.0934 N/A
4:53 pm 16:53 Clear 48 8.9 14 -10 25 25 E 6 9 30.28 1026 10 16.0934 N/A
5:53 pm 17:53 Clear 48 8.9 14 -10 25 25 ENE 5 7 30.29 1026 10 16.0934 N/A
6:53 pm 18:53 Clear 47 8.3 15 -9.4 28 28 N N/A 30.31 1026 10 16.0934 N/A
7:53 pm 19:53 Clear 45 7.2 18 -7.8 34 34 W 3 6 30.31 1026 10 16.0934 N/A
8:53 pm 20:53 Clear 41 5 21 -6.1 45 45 NNW 5 7 30.31 1026 10 16.0934 N/A
9:53 pm 21:53 Clear 40 4.4 19 -7.2 43 43 NNW 6 9 30.32 1027 10 16.0934 N/A
10:53 pm 22:53 Clear 39 3.9 20 -6.7 46 46 N N/A 30.33 1027 10 16.0934 N/A
11:53 pm 23:53 Clear 38 3.3 20 -6.7 48 48 NNW 5 7 30.32 1027 10 16.0934 N/A

Powered by AerisWeather